[[{"header":{"parameterUnit":"m.s-1","parameterCategory":1,"la1":30.2991,"la2":30.254,"lo1":-89.0895,"lo2":-89.0444,"dy":0.0017,"dx":0.0017,"nx":28,"ny":28,"refTime":"2024-07-30T09:00:00:Z","depth":0,"parameterNumber":2,"parameterNumberName":"U-component_of_WINDS"},"data":[0,0,0,0,0,0,0,0,0,0,0,0,0,0,0,0,0,0,0,0,0,0,0,0,0,0,0,0,0,0,0,0,0,0,0,0,0,0,0,0,0,0,0,0,0,0,0,0,0,0,0,0,0,0,0,0,0,0,1.199,1.1991,0,1.2111,1.2112,1.2113,1.2158,1.2158,1.2157,1.2157,1.228,1.2284,1.2287,0,0,0,0,0,0,0,0,0,0,0,0,0,1.1796,1.1799,1.199,1.1991,1.1993,1.211,1.2112,1.2114,1.2158,1.2158,1.2157,1.2157,1.2279,1.2283,1.2288,0,0,0,0,0,0,0,0,0,0,0,0,0,1.1895,1.18,1.1989,1.2029,1.2034,1.211,1.2112,1.2114,1.2158,1.2158,1.2157,1.2157,1.2277,1.2283,1.2288,1.2334,0,0,1.2305,1.2307,0,0,0,0,0,0,0,0,1.1889,1.1902,1.2022,1.2026,1.2032,1.2119,1.2089,1.2188,1.2158,1.2111,1.2157,1.2156,1.2227,1.2236,1.226,1.2339,1.2345,1.2305,1.2309,1.2311,1.2313,0,0,0,0,0,0,0,1.1882,1.1897,1.2037,1.2023,1.203,1.204,1.2054,1.2108,1.2171,1.2115,1.2119,1.2132,1.2229,1.2255,1.2264,1.2346,1.2305,1.231,1.2313,1.2316,1.2468,1.2468,0,0,0,0,0,0,1.1869,1.1891,1.2034,1.2041,1.1958,1.2044,1.2059,1.2091,1.217,1.2182,1.2133,1.2134,1.2246,1.2257,1.2268,1.2326,1.2311,1.2316,1.2319,1.2467,1.2468,1.2469,0,0,0,0,0,0,1.1864,1.1881,1.2029,1.1967,1.1987,1.2048,1.2084,1.2094,1.212,1.2184,1.2195,1.2147,1.2246,1.226,1.2317,1.2331,1.2319,1.2323,1.2466,1.2467,1.2468,1.2442,0,0,0,0,0,0,1.1859,1.1879,1.1897,1.1967,1.199,1.2076,1.2085,1.2097,1.2129,1.2132,1.22,1.2211,1.2247,1.2308,1.2322,1.2338,1.2328,1.2465,1.2466,1.2468,1.2441,1.2442,1.2442,0,0,0,0,0,1.1852,1.1885,1.1898,1.1915,1.2014,1.2076,1.2089,1.213,1.213,1.2148,1.2189,1.2209,1.2327,1.2314,1.233,1.2347,1.2464,1.2466,1.2468,1.2441,1.2442,1.2442,0,0,0,0,0,0,1.1815,1.1895,1.191,1.1968,1.2015,1.2084,1.2108,1.2129,1.2177,1.2177,1.2225,1.224,1.2293,1.2326,1.231,1.2395,1.2397,1.2402,1.2371,1.2372,1.2372,1.2363,1.2332,0,0,0,0,0,1.1814,1.1859,1.1926,1.197,1.1993,1.2046,1.2075,1.2102,1.2153,1.2173,1.2218,1.2267,1.2315,1.2345,1.2393,1.2446,1.2462,1.2466,1.2466,1.2466,1.247,1.25,1.2503,1.2474,1.2474,1.2474,0,0,1.1812,1.1861,1.1886,1.1964,1.2004,1.2048,1.2063,1.211,1.2143,1.218,1.2236,1.2271,1.2328,1.2383,1.2409,1.2412,1.2481,1.2469,1.2468,1.2472,1.2502,1.2505,1.2507,1.2475,1.2475,1.2475,0,0,1.183,1.1872,1.1913,1.1953,1.2013,1.2048,1.2058,1.2124,1.2148,1.2205,1.2234,1.2274,1.2356,1.2395,1.2426,1.2458,1.2478,1.2473,1.2473,1.2502,1.2504,1.2506,1.2517,1.2521,1.2476,1.2476,1.2476,0,1.182,1.1889,1.1931,1.1977,1.2009,1.2045,1.2087,1.2123,1.2195,1.2217,1.2219,1.2322,1.2363,1.2427,1.2435,1.2459,1.2471,1.2465,1.25,1.2503,1.2506,1.2517,1.2521,1.2475,1.2475,1.2475,1.2475,0,1.1872,1.1919,1.1945,1.2014,1.205,1.2093,1.2142,1.2173,1.2196,1.2231,1.2288,1.2339,1.2397,1.2414,1.2438,1.2481,1.2481,1.2491,1.2494,1.2507,1.2518,1.2522,1.2473,1.2474,1.2474,1.2474,0,0,1.1871,1.1964,1.1972,1.2004,1.2072,1.211,1.2154,1.2211,1.2236,1.2285,1.2322,1.239,1.24,1.2435,1.2463,1.2488,1.251,1.2495,1.2497,1.2496,1.256,1.2552,1.2556,1.2523,1.2524,1.2525,1.2555,0,1.1899,1.198,1.2019,1.2083,1.2126,1.2161,1.2199,1.2245,1.2279,1.232,1.2357,1.2404,1.2414,1.2435,1.2461,1.2501,1.2523,1.25,1.2558,1.256,1.2542,1.2562,1.2553,1.2579,1.256,1.256,1.2561,0,1.1941,1.1989,1.2057,1.212,1.214,1.2174,1.2229,1.2269,1.2321,1.2344,1.2382,1.2409,1.2457,1.2456,1.2521,1.2504,1.2531,1.2554,1.2556,1.2563,1.2561,1.2568,1.2589,1.2592,1.2568,1.2568,1.2567,0,1.1933,1.2015,1.2066,1.2092,1.2167,1.219,1.2222,1.2274,1.2306,1.2354,1.2374,1.2427,1.2456,1.2496,1.2536,1.2532,1.2597,1.26,1.2617,1.2616,1.2629,1.2628,1.2653,1.2646,1.2646,1.2646,1.2646,0,1.1959,1.1998,1.2063,1.2095,1.214,1.2185,1.2228,1.2263,1.2309,1.2347,1.238,1.2415,1.2467,1.2509,1.2541,1.2589,1.2602,1.2621,1.2629,1.2618,1.2616,1.2636,1.2635,1.2647,1.2647,1.2647,1.2647,0,1.1957,1.2002,1.206,1.2126,1.2144,1.2174,1.2231,1.2262,1.2297,1.2345,1.2359,1.2414,1.2464,1.2509,1.2575,1.2597,1.2647,1.2657,1.2629,1.2633,1.2647,1.2645,1.2686,1.2694,1.2681,1.2682,1.2682,0,1.197,1.2002,1.2071,1.2099,1.2131,1.2176,1.2208,1.2253,1.2286,1.2347,1.2371,1.2424,1.2468,1.2547,1.2593,1.2644,1.2655,1.2666,1.2663,1.2651,1.2655,1.2652,1.2655,1.2666,1.2666,1.2666,1.2665,0,1.1989,1.2009,1.2055,1.2108,1.2146,1.219,1.2235,1.2256,1.2309,1.2343,1.2395,1.243,1.2498,1.2549,1.2605,1.2638,1.266,1.2666,1.2673,1.2661,1.2644,1.2653,1.2628,1.2665,1.2665,1.2665,1.2665,1.2665,1.1995,1.2024,1.2078,1.2127,1.2166,1.2207,1.2239,1.2278,1.2323,1.2382,1.2405,1.2458,1.2509,1.2587,1.2619,1.2661,1.2665,1.2674,1.2676,1.2678,1.2676,1.2637,1.2671,1.2671,1.2671,1.2671,1.2671,0,1.2014,1.205,1.2096,1.2157,1.2196,1.2214,1.2265,1.2295,1.2342,1.2388,1.2431,1.249,1.254,1.2589,1.2642,1.2666,1.2677,1.2678,1.2677,1.2684,1.2669,1.2658,1.2668,1.2668,1.2668,1.2668,1.2668,1.2668,1.2029,1.208,1.2107,1.2176,1.2212,1.2264,1.2291,1.2329,1.2366,1.2431,1.2473,1.2505,1.2552,1.2608,1.2655,1.2668,1.2686,1.2683,1.2699,1.2685,1.2685,1.2684,1.2674,1.2687,1.2687,1.271,1.271,1.271]},{"header":{"parameterUnit":"m.s-1","parameterCategory":1,"la1":30.2991,"la2":30.254,"lo1":-89.0895,"lo2":-89.0444,"dy":0.0017,"dx":0.0017,"nx":28,"ny":28,"refTime":"2024-07-30T09:00:00:Z","depth":0,"parameterNumber":3,"parameterNumberName":"V-component_of_WINDS"},"data":[0,0,0,0,0,0,0,0,0,0,0,0,0,0,0,0,0,0,0,0,0,0,0,0,0,0,0,0,0,0,0,0,0,0,0,0,0,0,0,0,0,0,0,0,0,0,0,0,0,0,0,0,0,0,0,0,0,0,4.8113,4.8113,0,4.8076,4.8075,4.8075,4.8007,4.8006,4.8005,4.8004,4.7966,4.7966,4.7967,0,0,0,0,0,0,0,0,0,0,0,0,0,4.8127,4.8127,4.8113,4.8113,4.8112,4.8076,4.8075,4.8075,4.8008,4.8006,4.8005,4.8003,4.7966,4.7966,4.7967,0,0,0,0,0,0,0,0,0,0,0,0,0,4.8109,4.8127,4.8113,4.8074,4.807,4.8076,4.8075,4.8075,4.8008,4.8006,4.8004,4.8002,4.7966,4.7966,4.7967,4.8007,0,0,4.7968,4.7968,0,0,0,0,0,0,0,0,4.811,4.8108,4.808,4.8077,4.8073,4.8044,4.8066,4.8052,4.8009,4.8032,4.8004,4.8001,4.7994,4.7992,4.7989,4.8006,4.8004,4.7968,4.7968,4.7968,4.7968,0,0,0,0,0,0,0,4.8111,4.8109,4.8098,4.808,4.8075,4.8059,4.8054,4.8063,4.8024,4.803,4.8025,4.8021,4.7991,4.7989,4.7988,4.8003,4.7968,4.7968,4.7968,4.7968,4.8052,4.8054,0,0,0,0,0,0,4.8118,4.8111,4.8099,4.8097,4.8087,4.806,4.8055,4.8055,4.8024,4.8017,4.8023,4.8018,4.7989,4.7987,4.7986,4.8031,4.7968,4.7968,4.7968,4.805,4.8052,4.8054,0,0,0,0,0,0,4.8119,4.8118,4.8101,4.8103,4.8099,4.8062,4.8063,4.8056,4.8053,4.8019,4.8011,4.8027,4.7988,4.7986,4.8002,4.8029,4.7968,4.7969,4.8047,4.805,4.8053,4.8123,0,0,0,0,0,0,4.8119,4.8118,4.8133,4.8104,4.81,4.8118,4.8065,4.8056,4.8054,4.8047,4.8021,4.8015,4.7986,4.8002,4.8003,4.8028,4.7969,4.8045,4.8049,4.8052,4.8118,4.8128,4.8136,0,0,0,0,0,4.812,4.8154,4.8134,4.8133,4.8117,4.812,4.8117,4.8083,4.8056,4.8071,4.8049,4.8016,4.8026,4.8005,4.8005,4.8031,4.8043,4.8048,4.8052,4.8114,4.8126,4.8136,0,0,0,0,0,0,4.8188,4.815,4.8127,4.8152,4.814,4.8108,4.8126,4.8097,4.8092,4.8086,4.8044,4.8039,4.8061,4.8048,4.8024,4.8068,4.8029,4.8034,4.8076,4.8087,4.8097,4.8099,4.7969,0,0,0,0,0,4.8206,4.8211,4.8177,4.8203,4.8198,4.8163,4.8163,4.8138,4.8123,4.8117,4.8096,4.8084,4.8084,4.8085,4.8084,4.8116,4.8109,4.8134,4.8143,4.8151,4.8155,4.8171,4.8181,4.8069,4.8069,4.8069,0,0,4.8243,4.8222,4.8228,4.8216,4.8203,4.821,4.8159,4.8168,4.8172,4.8119,4.8133,4.8118,4.8101,4.8126,4.8135,4.8115,4.8185,4.8156,4.8163,4.8163,4.8177,4.8187,4.8197,4.8072,4.8072,4.8071,0,0,4.8313,4.8299,4.8318,4.8307,4.8288,4.8265,4.827,4.8243,4.823,4.8244,4.8204,4.8209,4.8211,4.82,4.8195,4.8263,4.8232,4.8264,4.8311,4.8327,4.8336,4.8344,4.8367,4.8376,4.8268,4.8269,4.8269,0,4.8362,4.8369,4.8332,4.8343,4.8339,4.8292,4.8312,4.8302,4.8284,4.8283,4.826,4.8261,4.8246,4.8268,4.8285,4.8282,4.8286,4.8266,4.8338,4.8345,4.8352,4.8374,4.8383,4.8272,4.8272,4.8272,4.8271,0,4.8429,4.8435,4.8454,4.8437,4.8435,4.8451,4.8417,4.842,4.8395,4.8375,4.839,4.837,4.8364,4.8368,4.8344,4.8386,4.8374,4.8345,4.8305,4.8367,4.8387,4.8395,4.8278,4.8277,4.8275,4.8274,0,0,4.854,4.8504,4.8511,4.8503,4.848,4.8484,4.8498,4.8491,4.8494,4.8484,4.8494,4.8497,4.8471,4.8465,4.844,4.8454,4.8508,4.8423,4.8422,4.8439,4.8553,4.8574,4.8585,4.8488,4.849,4.8491,4.8555,0,4.8605,4.8626,4.8594,4.8622,4.8627,4.8582,4.8594,4.8582,4.8563,4.8565,4.8544,4.8547,4.8512,4.8508,4.8521,4.8499,4.8531,4.8494,4.8497,4.8498,4.8502,4.8595,4.8617,4.8678,4.8562,4.8564,4.8565,0,4.8683,4.8676,4.8705,4.868,4.8681,4.8692,4.8684,4.8687,4.8671,4.8657,4.8651,4.8621,4.8633,4.8595,4.8611,4.8587,4.8587,4.8577,4.8578,4.8576,4.8534,4.8595,4.8697,4.8706,4.8577,4.8576,4.8575,0,4.876,4.8759,4.8776,4.877,4.8742,4.8751,4.8739,4.8722,4.872,4.8714,4.8712,4.8707,4.8704,4.8701,4.8671,4.8646,4.8691,4.865,4.8679,4.8679,4.8689,4.8689,4.8791,4.8691,4.869,4.869,4.869,0,4.8836,4.8855,4.881,4.8821,4.8841,4.8804,4.8826,4.881,4.8795,4.8802,4.8763,4.877,4.873,4.8733,4.871,4.8726,4.8726,4.8714,4.8708,4.8717,4.8719,4.8716,4.871,4.8693,4.8692,4.8692,4.8691,0,4.8925,4.8896,4.8911,4.8883,4.8876,4.8893,4.8869,4.8877,4.8857,4.8866,4.8866,4.8833,4.8835,4.8805,4.88,4.8785,4.8812,4.8798,4.8817,4.8812,4.8842,4.8839,4.8946,4.8957,4.885,4.8851,4.8852,0,4.8974,4.8988,4.8961,4.8963,4.8953,4.8957,4.8955,4.892,4.892,4.8904,4.8914,4.8913,4.8909,4.8914,4.889,4.8887,4.8872,4.891,4.8872,4.8881,4.8872,4.8871,4.8872,4.8918,4.8919,4.892,4.8921,0,4.9065,4.905,4.9049,4.9043,4.9042,4.9036,4.9027,4.903,4.8992,4.8994,4.8995,4.8993,4.8988,4.8987,4.8979,4.8968,4.8938,4.8934,4.894,4.8949,4.8959,4.8954,4.8838,4.8931,4.893,4.8929,4.8929,4.8928,4.9135,4.9145,4.9128,4.9128,4.9118,4.9111,4.9118,4.9098,4.9098,4.9092,4.9071,4.9076,4.9061,4.9047,4.9038,4.9041,4.9023,4.9032,4.9034,4.9037,4.9043,4.896,4.904,4.904,4.9039,4.9039,4.9039,0,4.9223,4.921,4.9211,4.92,4.92,4.9172,4.9161,4.9163,4.9168,4.9156,4.9154,4.9155,4.9154,4.9131,4.9127,4.9134,4.9121,4.9134,4.9133,4.9131,4.906,4.9054,4.9146,4.9146,4.9146,4.9145,4.9145,4.9145,4.9269,4.9285,4.9268,4.9278,4.9265,4.9269,4.9265,4.9259,4.9249,4.9252,4.9251,4.9236,4.922,4.9214,4.9212,4.9205,4.9206,4.9224,4.9213,4.9146,4.9136,4.9126,4.9121,4.9224,4.9225,4.9283,4.9284,4.9284]}]]